VE3BQM-WX Weather Reports


time (UTC)temp
C
wind
direction
speed
KPH
gust
KPH
rain 1hr
cm
rain 24hr
cm
rain mn
cm
humidity
%
barometer
mb
20260901023605 22 291 3.2 11.3 0.00 0.30 0.00 96 981.9
20260901022703 22 310 4.8 9.7 0.00 0.30 0.00 97 982.0
20260901021805 22 294 3.2 14.5 0.00 0.30 0.00 97 982.0
20260901021118 22 301 3.2 14.5 0.00 0.30 0.00 96 982.0
20260901020216 22 308 3.2 9.7 0.00 0.30 0.00 96 982.2
20260901015403 22 293 3.2 8.0 0.00 0.30 0.00 96 982.5
20260901014504 22 278 3.2 8.0 0.00 0.30 0.00 97 982.5
20260901013603 22 284 0.0 8.0 0.00 0.30 0.00 97 982.7
20260901012703 22 315 4.8 8.0 0.00 0.30 0.00 97 982.6
20260901012017 22 307 3.2 11.3 0.00 0.30 0.00 97 982.7
20260901010903 22 290 3.2 8.0 0.00 0.30 0.00 98 982.5
20260901010005 22 287 1.6 4.8 0.00 0.30 0.00 99 982.7
20260901005406 22 302 1.6 6.4 0.00 0.30 0.00 99 982.8
20260901004504 22 316 0.0 6.4 0.00 0.30 0.00 99 982.8
20260901003605 22 310 0.0 6.4 0.00 0.30 0.00 99 982.7
20260901002703 22 301 0.0 6.4 0.00 0.30 0.00 99 982.7
20260901001803 22 287 0.0 3.2 0.00 0.30 0.00 99 982.8
20260901000904 22 318 1.6 3.2 0.00 0.30 0.00 99 982.9
20260901000005 23 313 0.0 3.2 0.00 0.30 0.00 99 983.0
20260831235405 23 356 0.0 9.7 0.00 0.30 0.00 99 982.9
20260831234503 23 269 0.0 9.7 0.00 0.30 0.00 98 983.0
20260831233603 23 225 0.0 12.9 0.00 0.30 0.00 98 982.9
20260831232703 23 0 0.0 0.0 0.00 0.30 0.00 97 982.9
20260831232018 23 330 0.0 3.2 0.00 0.30 0.00 97 983.0
20260831230903 23 18 0.0 3.2 0.00 0.30 0.00 96 983.0
20260831230006 23 328 0.0 3.2 0.00 0.30 0.00 94 983.0
20260831225614 24 328 0.0 3.2 0.00 0.30 0.30 94 983.0
20260831224716 24 315 0.0 3.2 0.00 0.30 0.30 93 983.1
20260831223604 25 237 0.0 6.4 0.00 0.30 0.30 92 983.0
20260831222703 25 225 0.0 3.2 0.00 0.30 0.30 91 983.2
20260831221805 25 268 0.0 3.2 0.00 0.30 0.30 90 983.2
20260831220905 25 242 3.2 6.4 0.00 0.30 0.30 89 983.2
20260831220004 25 248 0.0 6.4 0.00 0.30 0.30 88 983.3
20260831215405 25 237 3.2 6.4 0.00 0.30 0.30 87 983.3
20260831214503 25 262 1.6 6.4 0.00 0.30 0.30 87 983.4
20260831213603 25 312 1.6 4.8 0.00 0.30 0.30 86 983.4
20260831212705 26 277 1.6 8.0 0.00 0.30 0.30 86 983.5
20260831212014 26 229 3.2 6.4 0.00 0.30 0.30 87 983.5
20260831210905 26 264 3.2 11.3 0.00 0.30 0.30 86 983.6
20260831210003 26 291 3.2 12.9 0.00 0.33 0.30 84 983.5
20260831205405 27 17 4.8 6.4 0.00 0.33 0.30 86 983.5
20260831204505 26 254 0.0 9.7 0.00 0.33 0.30 93 983.5
20260831203605 25 250 3.2 9.7 0.00 0.33 0.30 93 984.0
20260831202705 24 262 0.0 9.7 0.00 0.33 0.30 94 984.1
20260831201805 24 253 4.8 9.7 0.00 0.33 0.30 92 984.2
20260831200906 25 282 1.6 6.4 0.00 0.33 0.30 92 984.2
20260831200214 25 300 3.2 8.0 0.00 0.33 0.30 95 984.3
20260831195404 24 328 4.8 9.7 0.00 0.33 0.30 95 984.4
20260831194504 23 305 3.2 12.9 0.00 0.33 0.30 97 984.4
20260831193816 23 291 3.2 12.9 0.00 0.33 0.30 97 984.6
20260831192705 23 338 3.2 8.0 0.00 0.33 0.30 99 984.6
20260831192015 23 352 1.6 8.0 0.00 0.33 0.30 99 984.7
20260831190903 23 314 3.2 6.4 0.00 0.33 0.30 99 984.7
20260831190005 23 355 0.0 11.3 0.00 0.33 0.30 99 984.7
20260831185403 23 292 1.6 11.3 0.00 0.33 0.30 99 984.6
20260831184714 23 263 0.0 4.8 0.00 0.33 0.30 99 984.6
20260831183603 23 337 0.0 6.4 0.00 0.33 0.30 99 984.9
20260831182914 23 334 0.0 6.4 0.00 0.33 0.30 99 984.8
20260831181803 22 326 0.0 8.0 0.00 0.33 0.30 99 984.9
20260831180904 22 245 1.6 4.8 0.00 0.33 0.30 99 985.0
20260831180216 21 318 0.0 6.4 0.00 0.33 0.30 99 985.1
20260831175617 21 13 1.6 8.0 0.00 0.33 0.30 99 985.2
20260831174503 21 321 1.6 6.4 0.00 0.33 0.30 99 985.2
20260831173605 21 5 0.0 6.4 0.00 0.33 0.30 99 985.2
20260831172703 21 304 3.2 6.4 0.00 0.33 0.30 99 985.2
20260831171803 21 295 3.2 6.4 0.00 0.33 0.30 99 985.2
20260831170903 21 295 3.2 6.4 0.00 0.33 0.30 99 985.3
20260831170216 21 304 3.2 9.7 0.00 0.33 0.30 99 985.3
20260831165404 21 295 4.8 6.4 0.00 0.33 0.30 99 985.5
20260831164505 21 2 1.6 9.7 0.00 0.33 0.30 99 985.4
20260831163812 21 266 1.6 12.9 0.00 0.33 0.30 99 985.5
20260831162706 21 280 3.2 6.4 0.00 0.33 0.30 99 985.2
20260831162017 21 266 3.2 9.7 0.00 0.33 0.30 99 985.5
20260831160908 21 303 3.2 11.3 0.00 0.33 0.30 99 985.4
20260831160008 21 300 3.2 8.0 0.00 0.33 0.30 99 985.5
20260831155403 21 322 3.2 6.4 0.00 0.33 0.30 99 985.4
20260831154505 21 335 1.6 8.0 0.00 0.33 0.30 99 985.5
20260831153604 21 289 0.0 6.4 0.00 0.33 0.30 99 985.4
20260831152703 21 255 0.0 11.3 0.00 0.33 0.30 99 985.4
20260831151803 21 305 3.2 11.3 0.00 0.33 0.30 99 985.5
20260831151115 20 341 0.0 9.7 0.00 0.33 0.30 99 985.5
20260831150005 20 324 1.6 9.7 0.00 0.33 0.30 99 985.5
20260831145405 20 321 0.0 9.7 0.00 0.33 0.30 99 985.5
20260831144504 20 307 3.2 6.4 0.00 0.33 0.30 99 985.3
20260831143605 20 261 3.2 4.8 0.00 0.33 0.30 99 985.1
20260831142705 20 285 1.6 4.8 0.00 0.33 0.30 99 985.2
20260831141803 20 225 1.6 3.2 0.00 0.33 0.30 99 985.0
20260831141116 20 225 0.0 1.6 0.00 0.33 0.30 99 984.9
20260831134505 20 224 1.6 4.8 0.03 0.33 0.30 99 984.7
20260831133605 19 230 0.0 6.4 0.05 0.33 0.30 99 984.9
20260831132705 19 230 1.6 4.8 0.05 0.33 0.30 99 984.8
20260831131803 19 225 1.6 8.0 0.05 0.33 0.30 99 984.8
20260831131122 19 225 0.0 14.5 0.05 0.33 0.30 99 984.9
20260831123605 19 225 0.0 4.8 0.00 0.28 0.23 99 985.2
20260831122705 18 225 0.0 4.8 0.00 0.28 0.23 99 985.2
20260831121804 18 225 0.0 4.8 0.00 0.28 0.23 99 985.1
20260831121117 18 238 0.0 4.8 0.00 0.28 0.23 99 985.1
20260831120005 18 225 1.6 4.8 0.00 0.28 0.23 99 985.2
20260831115405 18 0 0.0 0.0 0.00 0.28 0.23 99 985.2
20260831114505 18 0 0.0 0.0 0.00 0.28 0.23 99 985.3
20260831113605 18 0 0.0 0.0 0.00 0.28 0.23 99 985.5
20260831112703 18 0 0.0 0.0 0.00 0.28 0.23 99 985.5
20260831111803 18 0 0.0 0.0 0.00 0.28 0.23 99 985.6
20260831110903 18 0 0.0 0.0 0.00 0.28 0.23 99 985.5
20260831110003 18 0 0.0 0.0 0.00 0.28 0.23 99 985.5
20260831105403 18 0 0.0 0.0 0.00 0.28 0.23 99 985.4
20260831104504 18 231 0.0 4.8 0.00 0.28 0.23 99 985.2
20260831103605 18 292 0.0 3.2 0.00 0.30 0.23 99 985.2
20260831102703 18 225 0.0 9.7 0.00 0.30 0.23 99 985.4
20260831101805 18 309 0.0 6.4 0.00 0.30 0.23 99 985.3
20260831100903 18 329 0.0 3.2 0.00 0.30 0.23 99 985.5
20260831100007 18 300 0.0 6.4 0.00 0.33 0.23 99 985.4
20260831095406 18 87 0.0 6.4 0.00 0.33 0.23 99 985.3
20260831094503 18 322 1.6 6.4 0.00 0.33 0.23 99 985.3
20260831093603 18 294 3.2 12.9 0.00 0.33 0.23 99 985.2
20260831092703 18 305 1.6 12.9 0.00 0.36 0.23 99 985.7
20260831091806 18 348 0.0 4.8 0.00 0.36 0.23 99 985.7
20260831090905 18 0 0.0 0.0 0.03 0.36 0.23 99 985.6
20260831090005 18 201 0.0 3.2 0.03 0.38 0.23 99 985.5
20260831085405 18 241 0.0 6.4 0.03 0.43 0.23 99 985.5
20260831084503 18 225 0.0 4.8 0.03 0.43 0.23 99 985.4
20260831083605 18 225 0.0 6.4 0.03 0.43 0.23 99 985.6
20260831082915 18 316 0.0 4.8 0.05 0.46 0.23 99 985.8
20260831081805 18 225 0.0 24.1 0.05 0.48 0.23 99 985.8
20260831080905 18 0 0.0 0.0 0.03 0.46 0.20 99 985.7
20260831080005 18 219 0.0 3.2 0.03 0.46 0.20 99 985.8
20260831075404 18 233 0.0 3.2 0.03 0.46 0.20 99 985.8
20260831074503 18 225 1.6 4.8 0.03 0.46 0.20 99 985.7
20260831073603 18 213 0.0 4.8 0.05 0.46 0.20 99 985.9
20260831072703 18 235 3.2 6.4 0.05 0.43 0.18 99 985.9
20260831072018 18 257 1.6 6.4 0.10 0.43 0.18 99 985.9
20260831070905 18 225 1.6 4.8 0.10 0.43 0.18 99 986.2
20260831070218 18 227 0.0 4.8 0.10 0.43 0.18 99 986.5
20260831065404 18 240 0.0 9.7 0.13 0.43 0.18 99 986.5
20260831064508 18 236 0.0 8.0 0.13 0.43 0.18 99 986.6
20260831063603 18 248 1.6 4.8 0.10 0.43 0.15 99 986.4
20260831062706 18 127 1.6 3.2 0.05 0.38 0.13 99 986.6
20260831062019 18 0 0.0 0.0 0.03 0.36 0.10 99 986.7
20260831061116 18 0 0.0 0.0 0.03 0.36 0.10 99 986.7
20260831060005 18 135 0.0 4.8 0.03 0.38 0.10 99 986.8
20260831055403 18 201 0.0 4.8 0.00 0.36 0.05 99 986.8
20260831054717 18 250 1.6 4.8 0.03 0.36 0.05 99 986.9
20260831053814 18 225 0.0 6.4 0.03 0.36 0.05 99 986.9
20260831052705 18 219 1.6 6.4 0.05 0.36 0.05 99 986.8
20260831052019 18 258 1.6 4.8 0.05 0.36 0.05 99 986.7
20260831050905 18 225 0.0 3.2 0.05 0.36 0.05 99 986.8
20260831050004 18 228 1.6 6.4 0.05 0.36 0.05 99 986.8
20260831045615 18 240 0.0 6.4 0.05 0.36 0.05 99 986.9
20260831044503 18 238 0.0 3.2 0.03 0.33 0.03 99 987.0
20260831043820 18 0 0.0 0.0 0.03 0.33 0.03 99 986.9
20260831042703 18 225 0.0 6.4 0.00 0.30 0.00 99 986.7
20260831042020 18 225 0.0 3.2 0.00 0.30 0.00 99 986.6
20260831040905 19 234 0.0 6.4 0.00 0.30 0.00 99 986.6
20260831040005 18 240 0.0 3.2 0.00 0.30 0.00 99 986.5
20260831035406 19 248 0.0 3.2 0.00 0.30 0.00 99 986.6
20260831034504 18 343 0.0 3.2 0.00 0.30 0.00 99 986.7
20260831033604 18 285 0.0 3.2 0.00 0.30 0.00 99 986.6
20260831032705 18 0 0.0 0.0 0.00 0.30 0.00 99 986.7
20260831031805 18 0 0.0 0.0 0.00 0.30 0.00 99 986.6
20260831030905 18 0 0.0 0.0 0.00 0.30 0.00 99 986.6
20260831030003 18 115 0.0 3.2 0.00 0.30 0.00 99 986.6
20260831025406 18 119 0.0 3.2 0.00 0.30 0.00 99 986.7
20260831024714 18 0 0.0 0.0 0.00 0.30 0.00 99 986.7